Vertical_Velocity
-0 -1 0 1 2 4 7 7 4 1 -1 -0 -1 -2 -3 -3 -3 -2 -2 -2 -3 -4 -3 -2 -1 -0 -0 -1 -1 -2 -2 -2 -2 -2 -1 -0 -0 0 0 -0 -1 -2 -3 -4 -5 -5 -4 -2 -1 0 1 0 1 3 6 7 8 7 6 3 3 3 3 2 1 1 2 4 0 -5 -8 -5 -3 -2 -1 1 4 5 4 2 1 2 4 3 2 2
0 0 1 1 1 2 4 6 6 4 0 0 -0 -1 -3 -3 -3 -3 -2 -2 -2 -3 -3 -3 -2 -1 -0 -1 -1 -2 -2 -2 -3 -3 -2 -1 -0 -0 -0 -1 -2 -3 -4 -4 -4 -4 -4 -3 -2 0 1 1 1 3 5 5 5 6 6 4 3 3 3 3 2 2 4 4 -1 -7 -9 -5 -3 -2 -3 -3 -3 -2 -1 -2 -0 1 3 3 3 3
-2 -2 -1 1 2 2 2 3 5 4 2 1 0 -0 -1 -3 -3 -3 -2 -2 -2 -2 -2 -3 -2 -2 -0 -0 -1 -2 -2 -2 -3 -3 -3 -2 -1 -1 -1 -1 -2 -3 -4 -5 -4 -3 -3 -3 -3 -2 1 2 2 3 4 3 3 5 7 4 3 2 3 2 2 2 3 2 -4 -8 -7 -4 -2 -2 -3 -4 -4 -4 -2 -1 0 1 1 2 3 3
-1 -3 -3 -0 2 3 3 2 2 3 3 2 1 1 0 -1 -2 -2 -2 -2 -2 -2 -2 -2 -2 -2 -1 -0 -0 -1 -2 -2 -3 -3 -4 -4 -3 -2 -1 -2 -2 -3 -4 -5 -4 -3 -2 -3 -3 -3 -2 1 2 3 4 2 2 4 8 5 1 -1 -1 -1 -0 0 2 -2 -6 -9 -5 -1 -1 -3 -5 -4 -1 2 4 3 3 2 0 1 2 2
1 -1 -2 -1 0 2 4 3 2 1 1 2 2 2 1 0 -0 -1 -1 -1 -2 -2 -2 -2 -2 -2 -2 -1 -0 -1 -2 -2 -3 -3 -4 -5 -4 -3 -2 -2 -2 -3 -3 -4 -4 -3 -3 -3 -3 -3 -3 -1 1 3 3 1 0 1 5 6 2 -3 -5 -3 -2 -0 1 -3 -7 -9 -4 -0 -1 -2 -4 -2 2 5 7 6 5 3 2 2 2 2
2 1 -1 -0 0 1 2 3 2 0 -1 0 1 2 2 1 0 -0 -0 -0 -1 -1 -2 -2 -2 -2 -2 -1 -1 -1 -1 -2 -2 -2 -3 -4 -5 -4 -3 -3 -3 -3 -3 -3 -3 -3 -3 -3 -3 -3 -3 -3 -1 1 2 0 -1 -2 1 5 4 1 -2 -1 0 1 0 -4 -8 -10 -6 -3 -2 -1 0 3 5 7 8 7 6 5 4 4 4 4
3 3 1 0 -0 1 1 1 0 -1 -2 -2 -1 1 2 2 1 0 0 0 -0 -1 -2 -2 -1 -1 -1 -1 -1 -1 -1 -1 -1 -1 -1 -3 -5 -5 -4 -3 -3 -3 -4 -4 -3 -3 -2 -2 -3 -3 -3 -4 -4 -3 -1 -1 -2 -3 -3 1 4 4 2 1 1 2 0 -5 -10 -11 -7 -5 -4 -1 3 7 9 9 9 8 7 7 7 7 7 6
-1 2 4 1 -2 -3 -1 1 1 -1 -3 -3 -2 -1 0 2 2 2 1 1 0 -1 -2 -2 -2 -1 -1 -1 -1 -1 -1 -1 -1 -1 -0 -2 -3 -5 -5 -4 -4 -4 -4 -4 -3 -2 -1 -2 -2 -3 -4 -5 -6 -6 -4 -1 -1 -2 -3 -1 3 5 4 2 1 1 0 -6 -10 -10 -5 -6 -4 -1 4 9 11 11 10 8 7 8 8 9 9 8
-2 -1 2 3 1 -2 -3 -1 1 1 -0 -1 -1 -0 0 1 2 2 3 3 2 0 -2 -2 -2 -1 -1 -1 -2 -1 -1 -0 -0 -0 -0 -0 -1 -3 -5 -4 -4 -4 -4 -4 -3 -2 -1 -1 -2 -3 -4 -5 -5 -6 -5 -2 -1 -1 -2 -2 2 5 7 4 3 1 1 -6 -8 -6 -1 -3 -3 -2 3 8 11 12 10 8 7 7 8 9 9 8
-1 -1 -1 1 2 2 -1 -1 -0 1 2 0 1 1 2 0 -0 0 2 3 3 1 -1 -2 -1 -1 -0 -1 -1 -2 -1 -0 -0 -0 -0 -0 -0 -1 -3 -4 -4 -4 -4 -5 -4 -2 -0 -0 -1 -2 -3 -4 -4 -5 -5 -4 -2 -1 -1 -1 0 3 6 5 3 1 1 -4 -5 -2 2 -0 -2 -1 2 6 10 11 10 8 6 6 7 9 9 9
-3 -2 -2 -2 -2 -1 -1 -1 -1 -1 -1 -3 -4 -3 -1 -1 -1 -2 -1 1 2 2 0 -1 -1 -1 0 -1 -1 -2 -1 -1 -0 0 -0 0 0 -0 -2 -3 -4 -4 -4 -5 -4 -2 1 1 1 -0 -2 -3 -4 -4 -4 -4 -3 -2 -1 -1 -1 0 3 4 2 0 0 -2 -2 -1 3 1 -0 -0 3 6 9 10 10 7 6 5 6 8 9 8
-4 -4 -4 -3 -3 -3 -4 -5 -6 -7 -7 -8 -9 -9 -7 -3 -2 -2 -2 -1 1 2 1 1 0 -0 -0 -1 -1 -2 -1 -1 0 0 -0 -0 0 0 -0 -2 -3 -4 -4 -5 -4 -1 2 1 2 2 -1 -3 -4 -4 -4 -4 -4 -3 -2 -1 -1 -2 -1 2 2 1 0 -1 -2 -1 1 1 1 2 5 7 9 10 9 7 5 5 5 7 7 7
-5 -6 -6 -6 -5 -4 -5 -8 -10 -10 -9 -8 -7 -6 -4 -2 -1 -1 -2 -1 0 1 1 2 2 1 -1 -2 -2 -1 -1 -1 0 0 0 -0 -0 -0 0 -1 -2 -3 -4 -4 -3 -1 2 2 2 2 1 -2 -3 -3 -3 -3 -4 -4 -3 -2 -1 -1 -2 0 1 0 -2 -3 -4 -3 -2 -1 0 2 5 8 9 9 8 6 5 3 3 4 5 5
-9 -10 -10 -8 -6 -5 -5 -6 -6 -6 -4 -2 -1 -0 0 1 0 -0 -2 -1 -0 1 0 1 2 2 0 -2 -3 -2 -1 -0 0 1 0 -0 -0 0 0 0 -1 -2 -4 -4 -3 -1 1 2 2 2 2 -0 -1 -2 -2 -2 -2 -3 -3 -2 -2 -1 -2 -2 -1 0 -2 -5 -7 -6 -5 -4 -2 1 4 7 9 9 8 6 4 3 2 3 4 4
-8 -8 -8 -6 -3 -1 -1 -1 -2 -2 -1 0 1 1 1 1 1 0 -1 -1 -1 0 0 1 2 2 1 -2 -4 -3 -1 0 1 1 1 0 -0 -0 0 0 -0 -2 -3 -3 -3 -1 1 1 1 2 4 2 -0 -1 -1 -0 -1 -2 -3 -2 -2 -2 -2 -3 -2 -1 0 -3 -5 -6 -6 -6 -4 -2 2 5 7 8 7 5 4 2 2 2 3 3
-3 -2 -3 -2 -0 2 3 3 1 -0 -1 0 1 2 1 1 1 0 0 -0 -0 0 0 0 1 1 0 -3 -4 -4 -2 -0 1 1 1 0 -1 -1 0 1 0 -1 -2 -3 -2 -1 1 1 2 3 4 2 0 -0 0 1 1 -1 -3 -3 -2 -2 -2 -2 -2 -1 1 0 -2 -4 -3 -4 -4 -3 0 3 5 6 6 5 4 3 2 2 2 3
-0 -0 -0 -0 1 2 4 3 2 0 -1 -0 1 2 3 2 1 1 0 0 0 0 1 0 1 1 1 -3 -5 -5 -2 0 1 2 2 1 -1 -1 0 1 1 1 -1 -2 -2 -1 -0 0 2 3 4 3 2 2 1 2 0 -2 -5 -5 -3 -2 -1 -2 -2 -1 1 -0 -2 -4 -1 -2 -3 -3 -1 1 3 5 5 4 3 3 2 3 3 3
1 2 1 1 2 3 4 3 1 -1 -2 -1 -0 1 3 3 2 1 0 -0 -0 -0 0 1 1 1 1 -1 -5 -7 -2 1 2 2 2 1 -1 -1 -0 1 2 1 0 -1 -1 -1 -1 -1 0 2 4 4 3 1 -1 -1 -3 -6 -7 -5 -3 -1 -0 -1 -2 -2 -1 -5 -8 -7 -2 -1 -1 -1 -1 0 2 3 4 3 3 2 2 3 3 3
1 2 2 1 1 2 3 3 1 -1 -3 -2 -1 0 1 2 2 1 -0 -0 -0 -0 0 1 1 1 1 -0 -3 -5 -2 1 3 3 3 1 -0 -1 -0 1 2 2 1 -0 -1 -2 -2 -1 -0 1 3 3 1 -1 -1 -3 -4 -4 -4 -3 -1 -0 0 -1 -2 -2 -4 -9 -10 -8 -0 1 1 1 1 1 1 2 2 2 2 2 2 3 4 3
2 3 4 1 0 0 2 3 2 1 -1 -2 -1 -0 1 2 2 1 -0 -1 -1 -0 0 1 1 1 1 -0 -2 -3 -2 1 2 3 3 2 0 -1 -0 1 2 3 2 1 -1 -2 -2 -2 -1 1 2 2 1 -0 -2 -3 -3 -3 -2 -1 -1 -0 -0 -0 -1 -2 -3 -7 -7 -4 2 3 2 2 2 2 2 2 2 2 1 1 1 2 3 3
2 4 4 2 1 -0 0 2 2 1 0 -1 -2 -1 -0 1 1 1 0 -1 -1 -1 0 1 1 1 1 1 -1 -2 -3 0 2 3 3 2 1 -1 -1 1 2 3 3 1 -1 -2 -2 -2 -1 -1 -1 0 0 -0 -2 -3 -3 -3 -1 -0 -1 -1 -2 -3 -3 -4 -5 -7 -6 -3 2 3 2 1 1 1 2 2 2 2 1 0 -0 0 1 2
2 2 3 3 2 1 0 1 2 2 1 0 -0 -0 0 1 1 2 2 1 -0 -0 0 1 2 1 1 1 -1 -2 -2 0 2 3 3 3 1 -1 -2 0 2 3 3 1 -1 -2 -2 -1 -1 -1 -2 -1 -1 -1 -2 -3 -3 -3 -1 0 -0 -2 -5 -9 -10 -11 -10 -9 -7 -4 1 2 1 0 -0 0 1 1 2 1 0 -1 -1 -1 -0 0
2 1 1 2 2 2 1 0 1 2 2 1 1 1 1 2 2 3 3 2 1 1 1 2 2 2 1 0 -1 -2 -2 0 2 3 4 4 1 -1 -2 1 2 3 3 1 -1 -2 -1 -1 -0 -0 -1 -1 -1 -1 -1 -2 -2 -2 -2 -1 -1 -2 -6 -10 -12 -12 -11 -9 -7 -4 -1 1 1 -0 -1 -1 -0 1 1 1 -0 -2 -2 -2 -1 -1
0 -0 -0 1 2 2 1 0 0 0 0 -0 -0 -0 -0 1 2 2 3 2 2 1 1 2 2 1 -0 -1 -1 -1 -2 -0 2 3 4 3 1 -1 -2 1 2 3 2 0 -1 -0 0 0 1 1 1 0 -0 -1 -1 -2 -2 -3 -3 -2 -2 -3 -5 -6 -7 -7 -6 -5 -4 -3 -1 1 1 0 -1 -0 0 1 1 1 -0 -1 -2 -2 -2 -2
-1 -1 -1 1 2 2 1 0 -0 -1 -1 -2 -2 -2 -1 -1 -1 -0 0 1 1 1 1 2 1 0 -1 -1 -1 -1 -2 -0 2 3 3 3 1 -1 -2 0 2 2 1 -0 -0 1 2 2 2 2 2 2 1 1 -0 -1 -3 -4 -4 -3 -3 -3 -4 -4 -4 -4 -4 -4 -3 -3 -0 2 2 2 0 1 1 2 2 2 1 -0 -1 -1 -2 -2
-0 -0 0 1 1 2 1 1 0 -0 -1 -2 -2 -2 -1 -1 -1 -1 -1 -1 -0 0 1 2 1 1 -1 -0 -1 -1 -2 -0 1 3 3 3 2 -0 -2 0 1 2 1 0 1 2 3 3 3 2 2 2 2 1 0 -1 -3 -4 -5 -3 -2 -2 -2 -2 -2 -3 -3 -4 -4 -2 1 4 4 2 1 1 2 3 3 3 2 1 0 -0 -1 -1
1 1 1 1 1 0 0 1 1 1 0 -1 -1 -1 -0 -0 -0 -0 -1 -1 -0 0 1 2 1 1 -0 -0 -1 -1 -1 -0 1 2 3 3 2 -0 -2 -0 1 2 1 1 2 3 4 4 3 3 2 2 2 1 -0 -1 -3 -4 -4 -3 -1 -0 0 -0 -1 -2 -3 -4 -4 -2 2 3 3 2 0 1 2 2 3 3 3 2 2 1 0 -0
1 0 0 -0 -1 -1 -1 -0 1 1 1 0 -1 -1 -0 0 0 0 -0 -0 -0 -0 0 1 1 1 0 -0 -0 -0 -0 -0 0 1 2 2 1 -1 -3 0 2 2 2 2 2 3 4 3 3 2 2 1 1 0 -1 -1 -2 -3 -3 -3 -2 -1 -1 -1 -1 -2 -4 -4 -4 -2 0 1 1 0 -0 0 1 2 3 3 3 3 2 2 1 1
1 1 0 -1 -2 -2 -2 -1 0 1 1 0 0 0 0 1 1 1 0 0 -0 -0 -0 0 1 1 1 1 0 -0 -1 -1 0 1 2 2 0 -1 -2 1 2 3 2 2 2 2 3 2 1 1 1 1 1 0 0 -0 -1 -1 -2 -2 -3 -3 -3 -2 -2 -3 -3 -3 -3 -2 -0 0 0 -0 -0 0 1 2 2 2 2 2 1 1 1 1
1 1 1 -0 -1 -1 -1 -0 1 1 1 0 0 0 1 1 2 2 1 1 0 0 0 0 0 1 1 1 0 -0 -2 -1 0 2 2 1 -0 -2 -1 1 3 3 2 2 2 2 2 1 1 1 1 1 2 2 1 1 1 0 -1 -1 -2 -2 -3 -3 -3 -2 -2 -2 -2 -1 -0 0 0 0 1 1 2 2 2 2 1 0 -1 -1 -1 -0
1 1 0 -0 -1 -0 0 1 1 2 1 1 1 1 1 2 2 2 1 1 1 1 1 1 0 1 1 1 0 -1 -2 -1 1 2 2 1 -0 -1 -0 2 2 2 2 2 3 3 2 1 1 1 2 2 2 2 2 2 2 1 1 0 -0 -1 -2 -2 -2 -2 -2 -2 -1 -1 -1 -0 0 1 2 2 3 3 3 2 0 -2 -3 -3 -2 -0
-0 -1 -1 -1 -1 0 1 2 2 2 1 1 1 1 1 1 2 2 1 1 2 2 1 1 1 0 0 1 0 -1 -2 0 2 3 3 2 0 -0 0 1 2 2 2 2 2 2 1 1 2 2 2 2 2 2 2 3 3 3 2 1 0 -1 -2 -1 -2 -2 -2 -2 -2 -1 -1 -1 0 1 2 3 3 4 3 1 -1 -4 -5 -5 -3 -1
-2 -2 -2 -1 -0 1 1 2 2 2 2 1 1 0 0 1 1 1 1 1 2 2 2 1 1 0 0 0 -0 -1 -1 1 3 4 3 2 1 1 0 1 2 2 2 2 2 1 1 1 1 2 2 3 3 3 3 3 3 3 3 2 1 1 1 1 0 -1 -2 -2 -2 -2 -2 -1 -1 1 2 3 4 4 3 0 -3 -5 -6 -5 -5 -4
-3 -2 -1 -0 1 1 2 2 2 2 2 1 1 0 -0 0 1 1 0 1 1 2 2 2 1 0 -0 -1 -1 -1 -1 2 4 4 3 2 2 1 1 1 2 2 2 2 1 1 1 1 1 1 2 2 2 2 2 2 3 3 3 3 3 3 2 1 -0 -1 -2 -2 -2 -2 -2 -2 -1 -0 1 2 3 3 2 -0 -3 -5 -5 -5 -4 -3
-2 -1 0 1 1 2 2 2 2 2 2 1 1 0 -0 0 1 1 -0 0 1 2 2 2 1 0 -0 -1 -1 -1 -0 3 4 4 3 2 1 1 1 1 1 2 2 2 1 1 2 2 2 3 2 2 2 1 2 3 4 4 5 5 5 4 2 0 -1 -1 -1 -1 -1 -2 -3 -3 -3 -2 -1 1 2 2 2 -0 -2 -3 -2 -2 -2 -1
-1 -0 1 1 1 2 2 2 2 3 2 1 1 0 -0 0 1 1 0 1 1 2 2 1 1 0 -0 -1 -1 -0 1 3 4 4 3 2 1 1 1 1 1 2 2 1 1 1 1 2 3 3 3 2 2 2 2 3 4 5 5 5 4 4 4 3 3 2 1 -0 -1 -2 -2 -3 -3 -3 -2 -1 -0 0 -0 -1 -2 -1 0 2 2 1
-0 0 1 1 1 1 1 2 2 2 3 2 1 0 -0 0 1 1 0 1 1 2 2 1 0 0 -0 -0 -0 0 2 3 3 3 2 1 1 0 -0 -0 1 1 2 1 1 0 0 1 2 3 3 3 3 3 3 3 3 3 3 3 2 2 3 4 4 4 2 -1 -2 -2 -1 -1 -2 -2 -2 -1 -1 -2 -3 -4 -3 -2 0 3 4 4
0 0 0 0 0 1 1 1 2 2 2 2 1 1 -0 -0 -0 0 0 1 1 1 1 0 0 -0 -0 -0 0 1 2 2 2 2 2 1 0 -0 -1 -0 0 1 1 1 1 0 1 2 3 3 4 3 3 3 3 3 3 3 4 5 5 5 3 2 2 2 1 0 1 1 1 0 -0 -0 1 1 0 -1 -2 -4 -5 -4 -3 -0 2 3
0 0 -0 -0 -1 -0 0 1 2 2 2 2 1 1 0 -1 -1 -1 0 1 2 1 1 0 -0 -0 -0 0 0 1 1 2 2 1 1 0 -0 -1 -1 -0 0 1 0 0 0 1 1 2 3 3 3 3 2 2 3 4 6 7 9 9 9 8 7 5 3 1 -0 2 4 4 3 2 1 1 1 1 0 -0 -1 -2 -2 -2 -1 -0 0 0
-0 -0 -0 -0 -1 -1 -1 0 1 2 2 2 1 1 -0 -1 -2 -2 -0 1 2 1 0 -0 -0 -0 -0 0 0 1 1 1 1 1 0 -0 -0 -1 -0 -0 0 0 0 0 1 1 1 2 2 2 2 2 2 3 2 3 4 5 6 4 2 1 2 4 4 3 2 2 0 -2 -3 -2 -1 -1 -3 -4 -4 -4 -5 -5 -3 -2 -1 0 2 3
-1 -1 0 0 -0 -1 -1 -0 0 1 1 1 1 1 -0 -2 -3 -3 -1 0 1 1 -0 -1 -1 -0 -0 0 1 1 1 1 1 0 0 -0 -1 -1 -1 -0 0 0 1 1 0 0 1 1 1 1 1 1 2 3 4 4 4 3 1 1 1 2 3 3 4 4 6 4 0 -2 -3 -2 -2 -3 -4 -5 -5 -5 -6 -5 -3 -3 -4 -5 -4 -2
-2 -1 -0 0 0 0 -0 -1 -1 -0 0 1 1 1 0 -1 -2 -2 -2 -0 0 0 -0 -0 -0 -0 0 0 1 1 1 1 1 1 0 -0 -1 -1 -1 -1 -0 0 1 0 0 -0 -0 0 1 1 2 2 2 2 3 3 4 5 6 9 14 18 19 12 8 5 4 2 2 3 5 3 1 -1 -1 0 1 1 1 3 3 2 2 -0 -3 -7
-1 -1 -0 1 1 1 0 -1 -1 -1 -1 0 0 1 0 -1 -2 -2 -1 -0 -0 0 -0 -0 -0 0 0 1 1 1 1 1 2 2 1 1 0 -0 -1 -0 0 0 1 0 0 -1 -1 -1 -0 0 1 2 3 3 3 2 2 3 7 9 8 6 3 3 4 5 2 0 0 1 2 0 -2 -3 -2 -2 -1 1 4 4 2 0 0 3 5 4
-1 -0 0 1 1 1 0 -1 -1 -1 -0 0 0 0 -1 -2 -2 -2 -1 -1 -0 -0 -0 -0 -0 0 0 1 1 0 0 1 1 1 2 1 1 1 0 0 0 1 1 1 -0 -1 -1 -1 -1 -1 -1 1 2 3 3 3 3 4 5 3 -1 -5 -9 -4 0 3 3 4 4 2 -2 -3 -2 -2 -1 -3 -4 -5 -4 -5 -6 -6 -5 -5 -2 2
0 -0 -0 1 1 1 0 -1 -2 -2 -0 0 0 -0 -1 -2 -2 -2 -2 -1 -1 -1 -1 -2 -1 -1 -0 1 1 0 -0 -0 -0 0 1 1 1 1 1 0 0 1 1 1 -0 -1 -1 -1 -1 -1 -1 1 1 2 1 2 4 5 5 4 5 10 17 18 15 9 3 4 3 2 1 2 3 3 2 -1 -2 -3 -5 -6 -5 -3 -1 -1 -2 -3
1 -0 -1 0 1 1 0 -1 -2 -1 -1 -0 -0 -1 -2 -3 -3 -2 -2 -2 -1 -1 -2 -3 -3 -2 -1 -0 0 0 -1 -2 -1 -1 0 0 -0 -0 -0 0 0 0 0 0 -0 -1 -1 -2 -3 -3 -1 1 1 2 2 2 3 3 3 4 7 12 16 14 10 7 6 4 2 1 2 4 3 -0 -5 -7 -7 -6 -5 -3 -0 2 1 3 2 0
0 -1 -1 0 1 1 0 -1 -1 -1 -1 -1 -1 -1 -2 -3 -3 -2 -2 -2 -2 -2 -3 -4 -3 -3 -2 -2 -1 -2 -3 -4 -2 -1 0 0 -1 -1 -1 -1 -1 -0 -0 -1 -1 -1 -1 -3 -3 -3 -1 1 1 1 1 2 2 2 2 4 5 3 -2 -6 -5 0 6 7 6 4 5 4 0 -4 -9 -8 -6 -4 -3 -2 -3 -4 -5 -4 -3 -2
-0 -1 -1 0 1 1 0 -0 -1 -0 -1 -1 -1 -2 -3 -3 -2 -2 -1 -1 -1 -2 -3 -2 -1 -0 0 0 -1 -3 -5 -4 -1 2 2 2 1 -1 -2 -2 -2 -1 -1 -1 -1 -2 -2 -2 -2 -1 0 1 1 1 1 1 2 3 3 4 4 3 1 2 5 7 8 6 5 4 4 -1 -5 -7 -3 2 5 4 2 0 -3 -5 -7 -6 -4 -3
-0 -1 -1 -0 1 1 1 0 -0 -0 -1 -1 -2 -2 -3 -3 -2 -1 -1 -1 -1 -1 -0 1 2 2 2 2 1 -0 -1 1 3 5 5 4 3 2 0 -1 -2 -2 -2 -2 -2 -2 -3 -3 -2 -1 0 1 0 0 0 2 2 3 3 3 4 5 7 11 13 11 7 4 3 3 1 -3 -5 -4 1 3 1 -2 -5 -5 -4 -3 -2 -2 -1 0
0 -1 -1 -1 0 0 1 0 0 -1 -1 -1 -2 -2 -3 -3 -2 -1 -1 -1 -1 1 3 3 3 2 1 1 1 1 1 2 3 3 3 2 2 2 1 -0 -2 -2 -3 -3 -3 -3 -3 -2 -2 -1 -0 0 -0 -1 -1 0 1 2 2 2 3 4 6 6 5 3 2 2 2 1 1 4 8 11 9 -0 -7 -11 -11 -8 -6 -4 -3 -2 -2 -2
1 -0 -1 -1 -0 0 0 0 -1 -1 -2 -2 -2 -3 -3 -2 -2 -1 -1 -1 0 2 3 2 1 1 1 2 1 1 -1 -2 -2 -2 -2 -2 -2 -1 -0 -0 -1 -2 -3 -3 -4 -4 -3 -3 -2 -1 -0 -0 -1 -1 -1 -1 -1 -0 0 2 3 4 3 1 0 0 2 3 2 2 2 4 6 5 0 -4 -4 -2 -1 -1 -1 -2 -3 -2 -2 -2
Height
5342 5339 5335 5331 5328 5324 5321 5316 5311 5306 5302 5299 5295 5291 5288 5285 5282 5279 5277 5274 5272 5269 5268 5266 5265 5264 5263 5262 5260 5259 5259 5258 5259 5260 5261 5263 5264 5265 5267 5268 5270 5272 5274 5278 5281 5285 5289 5294 5300 5305 5311 5316 5323 5329 5336 5342 5346 5349 5355 5361 5367 5373 5380 5388 5397 5405 5414 5423 5429 5435 5442 5450 5460 5469 5479 5488 5498 5506 5515 5524 5533 5543 5553 5561 5569 5578
5339 5335 5332 5329 5325 5322 5318 5314 5310 5306 5301 5297 5293 5290 5286 5283 5280 5277 5274 5272 5269 5267 5265 5263 5262 5261 5260 5259 5258 5257 5256 5256 5256 5257 5258 5260 5261 5263 5264 5265 5267 5269 5272 5275 5278 5282 5286 5291 5296 5302 5307 5313 5319 5325 5332 5337 5342 5346 5350 5356 5363 5370 5377 5384 5392 5401 5409 5417 5423 5429 5435 5444 5454 5464 5473 5482 5491 5500 5509 5518 5528 5538 5548 5558 5566 5574
5336 5332 5329 5326 5323 5319 5316 5312 5308 5304 5299 5295 5292 5288 5284 5280 5277 5275 5272 5269 5267 5265 5263 5261 5259 5258 5258 5257 5256 5255 5254 5253 5253 5254 5255 5257 5258 5259 5261 5263 5264 5266 5269 5272 5276 5280 5283 5288 5292 5298 5303 5309 5315 5321 5327 5333 5339 5344 5348 5351 5357 5365 5373 5380 5387 5394 5403 5411 5417 5423 5431 5441 5451 5460 5468 5477 5485 5495 5504 5514 5525 5535 5544 5554 5563 5571
5333 5329 5326 5323 5320 5317 5313 5309 5305 5301 5297 5293 5289 5286 5282 5278 5275 5272 5269 5267 5264 5262 5260 5258 5257 5256 5255 5254 5253 5252 5252 5251 5251 5251 5252 5253 5255 5256 5258 5260 5261 5263 5266 5269 5273 5277 5281 5285 5289 5293 5299 5305 5311 5317 5323 5329 5335 5340 5344 5347 5351 5358 5368 5375 5381 5388 5397 5404 5411 5419 5428 5438 5448 5456 5465 5474 5484 5494 5504 5514 5523 5532 5541 5550 5559 5568
5331 5327 5323 5320 5317 5313 5309 5306 5302 5298 5294 5290 5287 5283 5280 5277 5273 5270 5267 5265 5262 5260 5258 5256 5254 5253 5252 5251 5251 5250 5249 5249 5248 5248 5249 5250 5251 5253 5255 5257 5259 5261 5263 5266 5270 5273 5278 5282 5286 5290 5295 5301 5307 5313 5319 5324 5329 5335 5341 5345 5348 5352 5360 5368 5376 5384 5392 5399 5407 5415 5425 5435 5445 5453 5463 5473 5484 5494 5504 5513 5521 5530 5538 5547 5556 5564
5329 5325 5321 5317 5314 5310 5306 5302 5298 5294 5291 5287 5284 5281 5278 5274 5271 5268 5265 5263 5260 5258 5255 5254 5252 5251 5249 5249 5248 5248 5247 5247 5246 5246 5246 5247 5248 5250 5252 5254 5256 5258 5261 5263 5267 5271 5274 5278 5283 5287 5291 5296 5302 5308 5314 5319 5325 5331 5338 5343 5347 5351 5356 5364 5373 5381 5388 5395 5402 5410 5421 5432 5442 5451 5461 5472 5482 5492 5502 5510 5518 5527 5535 5544 5553 5561
5325 5323 5319 5314 5310 5307 5303 5299 5295 5291 5287 5284 5281 5278 5275 5272 5268 5265 5263 5260 5258 5255 5253 5251 5250 5248 5247 5246 5246 5245 5245 5244 5244 5244 5244 5245 5246 5247 5249 5251 5253 5255 5258 5261 5264 5268 5272 5276 5279 5283 5288 5293 5298 5303 5310 5315 5321 5327 5334 5341 5347 5352 5356 5362 5370 5378 5385 5390 5397 5406 5417 5428 5438 5448 5459 5470 5480 5489 5498 5507 5515 5523 5532 5541 5550 5558
5322 5319 5316 5312 5307 5303 5300 5297 5293 5288 5284 5281 5278 5275 5272 5269 5266 5263 5260 5258 5255 5253 5251 5249 5248 5246 5245 5244 5243 5243 5243 5242 5242 5242 5242 5242 5243 5244 5246 5248 5250 5253 5255 5258 5262 5265 5269 5273 5277 5280 5284 5289 5294 5300 5306 5312 5318 5324 5331 5338 5345 5350 5354 5360 5367 5374 5381 5387 5393 5403 5413 5424 5435 5445 5456 5467 5477 5486 5494 5503 5511 5519 5528 5537 5546 5555
5319 5316 5313 5309 5305 5301 5296 5293 5290 5286 5282 5278 5275 5272 5269 5266 5263 5261 5258 5256 5253 5251 5248 5247 5245 5244 5243 5242 5241 5240 5240 5240 5240 5240 5240 5240 5241 5242 5243 5245 5248 5250 5253 5256 5259 5263 5267 5270 5274 5278 5282 5286 5291 5297 5303 5309 5316 5322 5328 5335 5342 5347 5352 5357 5363 5370 5378 5383 5391 5400 5411 5422 5432 5442 5453 5463 5473 5483 5491 5498 5507 5515 5524 5533 5541 5550
5317 5313 5309 5306 5303 5299 5295 5291 5288 5284 5280 5276 5273 5269 5266 5263 5260 5258 5256 5254 5251 5249 5246 5244 5243 5242 5241 5240 5239 5238 5238 5238 5238 5238 5238 5238 5238 5239 5240 5242 5245 5247 5250 5253 5257 5261 5265 5268 5272 5276 5279 5283 5288 5294 5300 5306 5312 5318 5325 5332 5338 5343 5348 5353 5359 5366 5374 5381 5389 5398 5409 5419 5429 5439 5449 5460 5469 5478 5486 5494 5502 5510 5519 5528 5537 5545
5313 5309 5306 5303 5299 5296 5293 5289 5285 5282 5277 5273 5270 5267 5264 5261 5258 5255 5253 5251 5249 5247 5245 5243 5241 5240 5239 5238 5237 5236 5236 5236 5236 5236 5236 5236 5236 5237 5238 5240 5242 5244 5248 5251 5254 5258 5263 5267 5270 5273 5277 5281 5286 5291 5297 5303 5308 5315 5321 5328 5334 5340 5345 5350 5355 5361 5369 5378 5386 5395 5405 5416 5426 5436 5446 5456 5465 5474 5482 5489 5497 5505 5514 5523 5532 5541
5310 5306 5303 5299 5296 5293 5289 5285 5281 5278 5274 5270 5266 5263 5260 5258 5255 5253 5250 5248 5247 5245 5243 5241 5239 5238 5237 5236 5235 5234 5234 5234 5234 5234 5234 5234 5234 5235 5236 5237 5239 5242 5245 5248 5252 5256 5261 5265 5268 5272 5275 5279 5283 5288 5294 5299 5305 5311 5318 5324 5331 5337 5342 5347 5352 5357 5364 5373 5381 5390 5400 5411 5422 5432 5443 5452 5461 5470 5478 5485 5493 5501 5509 5518 5527 5536
5307 5303 5299 5296 5293 5289 5286 5282 5278 5274 5271 5267 5264 5261 5258 5255 5253 5250 5248 5246 5245 5243 5241 5240 5238 5236 5235 5233 5233 5233 5233 5233 5233 5232 5232 5232 5233 5233 5234 5235 5237 5239 5242 5246 5250 5254 5259 5263 5266 5270 5273 5277 5281 5286 5291 5297 5302 5308 5315 5321 5327 5333 5339 5344 5349 5354 5359 5367 5375 5384 5394 5405 5417 5428 5438 5448 5457 5466 5473 5481 5488 5497 5505 5513 5522 5531
5302 5298 5295 5292 5289 5286 5283 5279 5275 5272 5269 5266 5263 5259 5257 5254 5251 5248 5246 5244 5243 5241 5240 5238 5237 5235 5233 5232 5231 5231 5231 5231 5231 5231 5231 5231 5231 5231 5232 5233 5235 5237 5240 5243 5247 5251 5256 5260 5264 5268 5271 5275 5279 5283 5289 5294 5300 5305 5311 5318 5324 5330 5336 5341 5346 5351 5356 5363 5369 5378 5388 5399 5411 5422 5433 5443 5453 5461 5469 5477 5484 5492 5501 5509 5518 5526
5299 5296 5293 5290 5287 5285 5282 5278 5274 5271 5268 5265 5261 5258 5255 5252 5249 5247 5244 5242 5240 5239 5238 5236 5235 5233 5232 5230 5229 5229 5229 5229 5230 5230 5230 5229 5229 5230 5231 5232 5233 5236 5238 5241 5245 5248 5253 5258 5262 5266 5270 5273 5277 5282 5287 5292 5297 5302 5308 5314 5320 5326 5332 5338 5343 5349 5354 5360 5367 5374 5384 5394 5405 5417 5428 5438 5448 5456 5464 5472 5480 5488 5497 5505 5513 5522
5298 5295 5292 5289 5287 5284 5281 5278 5274 5270 5266 5263 5260 5257 5254 5251 5248 5245 5243 5241 5239 5237 5236 5234 5233 5232 5230 5229 5228 5227 5228 5228 5228 5228 5228 5228 5228 5228 5229 5231 5233 5234 5237 5239 5243 5246 5251 5255 5259 5263 5268 5272 5275 5279 5284 5289 5294 5298 5304 5310 5317 5323 5329 5335 5341 5347 5353 5358 5364 5372 5381 5391 5401 5412 5423 5433 5443 5452 5460 5468 5476 5484 5493 5501 5509 5518
5297 5294 5291 5288 5285 5283 5280 5277 5273 5269 5265 5262 5258 5256 5253 5249 5246 5244 5241 5239 5237 5236 5234 5233 5231 5230 5229 5227 5226 5226 5226 5227 5227 5228 5228 5228 5228 5228 5228 5230 5231 5233 5235 5238 5241 5244 5248 5253 5257 5262 5266 5269 5273 5278 5282 5286 5291 5295 5300 5307 5313 5320 5326 5332 5338 5344 5349 5354 5360 5368 5377 5388 5398 5408 5419 5429 5438 5447 5455 5464 5472 5480 5488 5497 5506 5514
5296 5293 5290 5287 5284 5282 5278 5275 5271 5267 5263 5260 5257 5254 5251 5248 5245 5243 5240 5238 5236 5234 5233 5231 5230 5229 5228 5227 5225 5225 5225 5226 5226 5227 5226 5226 5227 5227 5227 5228 5230 5232 5234 5236 5239 5242 5246 5250 5255 5259 5263 5267 5271 5275 5279 5283 5288 5292 5298 5304 5311 5318 5324 5329 5334 5340 5344 5349 5354 5362 5373 5384 5395 5405 5415 5425 5434 5443 5451 5459 5468 5476 5484 5493 5502 5510
5295 5293 5289 5286 5283 5280 5277 5273 5269 5265 5261 5258 5255 5252 5249 5247 5244 5241 5238 5236 5234 5233 5231 5230 5229 5228 5227 5226 5225 5224 5224 5225 5225 5226 5226 5226 5226 5226 5227 5228 5229 5231 5233 5235 5237 5240 5244 5248 5253 5257 5261 5265 5269 5273 5277 5281 5285 5290 5296 5302 5309 5315 5321 5326 5331 5336 5341 5345 5351 5359 5371 5382 5392 5402 5413 5422 5431 5439 5447 5455 5463 5472 5480 5489 5497 5505
5294 5292 5288 5285 5281 5278 5275 5272 5268 5264 5260 5256 5253 5251 5248 5245 5243 5239 5237 5235 5233 5232 5230 5229 5228 5226 5226 5225 5224 5223 5223 5224 5224 5225 5225 5225 5225 5226 5226 5227 5229 5230 5232 5234 5236 5238 5242 5246 5251 5255 5259 5263 5267 5270 5274 5278 5283 5288 5294 5300 5306 5311 5317 5322 5327 5332 5338 5343 5350 5358 5369 5379 5389 5399 5409 5418 5427 5436 5443 5452 5459 5467 5476 5484 5493 5501
5292 5290 5287 5284 5280 5276 5273 5270 5267 5263 5259 5255 5252 5249 5246 5243 5241 5238 5236 5233 5232 5230 5229 5228 5226 5225 5225 5224 5223 5223 5223 5223 5224 5224 5224 5224 5225 5225 5226 5227 5228 5229 5231 5233 5234 5237 5240 5244 5249 5253 5257 5261 5265 5268 5272 5276 5281 5286 5292 5297 5303 5308 5312 5317 5322 5327 5333 5339 5346 5355 5366 5376 5385 5395 5405 5415 5424 5432 5440 5448 5455 5463 5471 5480 5488 5497
5292 5289 5286 5283 5279 5275 5272 5268 5265 5261 5258 5254 5251 5248 5245 5242 5239 5237 5235 5233 5231 5229 5228 5227 5225 5225 5224 5223 5223 5222 5222 5222 5223 5223 5224 5224 5224 5224 5225 5226 5228 5229 5230 5232 5233 5236 5239 5243 5247 5251 5255 5259 5263 5267 5271 5274 5279 5284 5289 5295 5300 5304 5308 5312 5317 5322 5328 5334 5342 5351 5362 5372 5382 5392 5401 5411 5420 5428 5437 5444 5452 5460 5468 5476 5484 5493
5291 5288 5284 5281 5278 5274 5270 5267 5263 5259 5256 5253 5250 5247 5244 5241 5239 5236 5234 5232 5230 5228 5227 5226 5225 5224 5223 5223 5222 5222 5221 5222 5223 5223 5223 5223 5223 5224 5225 5226 5227 5228 5230 5231 5233 5235 5238 5242 5246 5250 5254 5258 5261 5265 5269 5273 5277 5282 5287 5292 5297 5301 5306 5310 5315 5321 5327 5333 5341 5349 5359 5369 5379 5388 5398 5408 5417 5425 5433 5441 5449 5457 5464 5473 5481 5489
5289 5285 5282 5279 5276 5272 5268 5265 5261 5258 5254 5251 5248 5245 5243 5240 5238 5236 5234 5231 5229 5228 5226 5225 5224 5223 5222 5222 5221 5221 5221 5221 5222 5223 5223 5223 5223 5223 5224 5226 5227 5228 5229 5231 5233 5235 5238 5241 5245 5248 5252 5256 5260 5263 5267 5271 5274 5279 5284 5289 5294 5299 5304 5310 5316 5322 5328 5334 5341 5348 5357 5367 5376 5385 5395 5405 5414 5423 5431 5438 5446 5454 5462 5469 5478 5486
5287 5283 5280 5277 5274 5270 5267 5263 5260 5256 5253 5250 5246 5243 5241 5238 5236 5234 5232 5230 5228 5227 5225 5224 5223 5222 5221 5221 5221 5221 5220 5221 5221 5222 5223 5223 5223 5223 5224 5225 5227 5228 5229 5230 5232 5235 5238 5241 5244 5247 5251 5254 5258 5261 5265 5268 5272 5276 5281 5286 5291 5297 5302 5308 5315 5321 5327 5333 5339 5347 5355 5365 5374 5383 5392 5402 5411 5420 5428 5436 5444 5451 5459 5467 5475 5483
5285 5282 5278 5275 5272 5269 5265 5262 5258 5255 5252 5248 5245 5242 5239 5237 5234 5232 5230 5228 5227 5226 5224 5223 5222 5221 5220 5220 5220 5220 5220 5220 5221 5221 5222 5223 5223 5223 5224 5225 5227 5228 5229 5231 5233 5235 5237 5240 5243 5246 5249 5252 5255 5259 5263 5266 5269 5273 5278 5283 5289 5295 5301 5307 5313 5319 5325 5331 5338 5345 5354 5363 5371 5380 5389 5398 5408 5416 5425 5433 5441 5448 5456 5464 5472 5480
5284 5281 5278 5274 5271 5267 5264 5260 5257 5254 5251 5248 5244 5241 5238 5236 5234 5232 5229 5228 5226 5225 5223 5222 5221 5221 5220 5220 5219 5219 5220 5220 5220 5221 5222 5222 5223 5223 5223 5225 5227 5228 5229 5230 5232 5234 5237 5239 5241 5244 5247 5250 5253 5256 5260 5263 5267 5271 5276 5281 5286 5292 5298 5304 5310 5316 5323 5329 5335 5343 5352 5360 5368 5376 5385 5394 5403 5413 5421 5430 5438 5445 5453 5461 5468 5476
5283 5279 5276 5273 5269 5265 5262 5259 5256 5253 5250 5247 5243 5241 5238 5235 5233 5231 5228 5227 5225 5224 5223 5222 5221 5220 5220 5219 5219 5219 5219 5220 5220 5221 5221 5222 5222 5223 5223 5225 5227 5228 5229 5230 5232 5234 5236 5238 5240 5242 5245 5248 5251 5254 5258 5262 5265 5269 5273 5278 5283 5289 5294 5300 5306 5313 5319 5326 5333 5340 5348 5356 5364 5373 5382 5391 5400 5409 5418 5426 5434 5442 5449 5457 5465 5473
5282 5278 5275 5271 5267 5264 5261 5258 5255 5252 5249 5246 5243 5240 5237 5235 5233 5230 5228 5226 5225 5223 5222 5221 5220 5220 5219 5219 5219 5219 5219 5220 5220 5221 5221 5222 5222 5223 5223 5225 5227 5228 5229 5230 5232 5233 5235 5237 5239 5241 5244 5247 5250 5253 5256 5260 5263 5268 5272 5276 5280 5286 5291 5297 5303 5310 5317 5323 5331 5338 5346 5353 5362 5370 5379 5388 5397 5406 5414 5422 5430 5438 5445 5453 5461 5470
5280 5277 5273 5270 5266 5263 5260 5257 5254 5251 5248 5245 5242 5239 5237 5234 5232 5230 5228 5226 5224 5223 5221 5220 5220 5219 5219 5219 5219 5219 5219 5219 5220 5221 5221 5222 5222 5223 5224 5225 5227 5228 5229 5230 5232 5233 5235 5236 5238 5241 5243 5246 5249 5252 5255 5258 5262 5266 5269 5274 5278 5283 5289 5295 5301 5308 5315 5322 5329 5336 5344 5352 5359 5368 5376 5385 5394 5402 5411 5418 5426 5433 5441 5449 5457 5466
5279 5276 5272 5268 5265 5262 5259 5257 5254 5251 5248 5245 5242 5239 5236 5234 5232 5229 5228 5226 5224 5223 5221 5220 5220 5219 5219 5219 5219 5219 5219 5220 5220 5221 5222 5222 5223 5223 5224 5225 5227 5228 5229 5230 5232 5233 5234 5236 5238 5240 5243 5245 5248 5251 5254 5257 5260 5264 5268 5272 5277 5282 5287 5293 5299 5306 5313 5320 5327 5334 5341 5349 5357 5365 5374 5382 5391 5399 5407 5415 5422 5429 5437 5445 5454 5463
5278 5274 5271 5268 5265 5262 5259 5256 5253 5250 5247 5244 5242 5239 5236 5234 5232 5229 5227 5226 5224 5223 5222 5220 5220 5219 5219 5219 5219 5219 5219 5220 5221 5222 5222 5223 5223 5224 5225 5226 5227 5228 5229 5230 5232 5233 5235 5236 5238 5240 5243 5245 5247 5250 5253 5256 5259 5263 5267 5271 5275 5280 5285 5291 5297 5303 5310 5317 5324 5331 5338 5346 5354 5363 5371 5380 5388 5396 5404 5411 5418 5425 5433 5442 5451 5460
5276 5273 5269 5267 5264 5261 5259 5256 5253 5250 5247 5244 5241 5238 5236 5234 5232 5229 5227 5226 5224 5223 5222 5221 5220 5219 5219 5219 5219 5219 5220 5221 5221 5222 5223 5223 5224 5224 5225 5226 5227 5228 5229 5231 5232 5233 5235 5236 5238 5240 5242 5244 5247 5249 5252 5255 5258 5262 5265 5270 5274 5279 5284 5289 5295 5302 5308 5315 5321 5328 5336 5343 5351 5360 5368 5377 5385 5393 5401 5408 5415 5423 5431 5439 5448 5457
5274 5271 5269 5267 5264 5261 5258 5255 5252 5249 5246 5243 5241 5238 5236 5234 5232 5229 5227 5225 5224 5223 5222 5221 5220 5220 5219 5219 5219 5220 5220 5221 5222 5222 5223 5224 5224 5225 5226 5227 5228 5228 5230 5231 5232 5233 5235 5237 5238 5240 5242 5244 5246 5249 5252 5254 5257 5261 5264 5268 5273 5278 5283 5288 5294 5300 5306 5313 5319 5326 5333 5341 5348 5356 5364 5373 5381 5389 5397 5405 5413 5420 5429 5438 5446 5455
5273 5271 5268 5266 5263 5261 5258 5255 5252 5249 5246 5243 5241 5238 5236 5234 5232 5229 5227 5225 5224 5223 5222 5221 5221 5220 5220 5220 5220 5220 5221 5222 5222 5223 5223 5224 5225 5225 5226 5227 5228 5229 5230 5231 5232 5234 5235 5237 5238 5240 5242 5244 5247 5249 5251 5254 5257 5260 5263 5267 5272 5276 5281 5287 5293 5298 5304 5311 5318 5324 5331 5338 5346 5353 5361 5369 5378 5386 5394 5402 5410 5418 5427 5436 5444 5453
5273 5270 5268 5266 5263 5260 5257 5254 5251 5248 5246 5243 5240 5238 5236 5234 5232 5230 5228 5226 5224 5223 5222 5221 5221 5221 5221 5221 5221 5221 5222 5222 5223 5223 5223 5224 5225 5226 5226 5227 5228 5229 5231 5232 5233 5234 5235 5237 5239 5241 5243 5245 5247 5249 5251 5254 5257 5260 5263 5267 5271 5275 5280 5285 5291 5297 5303 5309 5316 5323 5329 5336 5343 5351 5359 5367 5374 5382 5390 5399 5407 5416 5425 5434 5442 5451
5272 5269 5267 5265 5262 5259 5256 5253 5250 5248 5245 5243 5240 5238 5236 5233 5232 5230 5228 5226 5224 5223 5222 5221 5221 5221 5221 5221 5222 5222 5222 5223 5223 5223 5224 5224 5225 5226 5227 5228 5229 5230 5231 5232 5233 5234 5236 5238 5239 5241 5243 5245 5247 5249 5251 5254 5257 5260 5263 5267 5270 5275 5279 5284 5289 5295 5301 5308 5315 5321 5328 5335 5342 5349 5357 5364 5371 5379 5387 5395 5404 5413 5422 5431 5440 5448
5271 5268 5266 5263 5261 5258 5255 5252 5250 5247 5245 5242 5240 5238 5235 5233 5232 5230 5228 5226 5225 5223 5223 5222 5222 5222 5222 5222 5222 5222 5223 5223 5223 5224 5224 5225 5226 5227 5228 5228 5230 5231 5232 5233 5234 5235 5237 5238 5240 5242 5243 5245 5247 5249 5251 5254 5257 5260 5263 5266 5269 5274 5278 5283 5288 5294 5300 5306 5312 5319 5325 5333 5340 5348 5355 5362 5369 5376 5384 5392 5400 5409 5418 5427 5436 5444
5270 5268 5265 5263 5260 5257 5254 5252 5249 5247 5244 5242 5239 5237 5235 5233 5231 5230 5228 5227 5225 5224 5223 5223 5222 5222 5222 5223 5223 5223 5223 5224 5224 5225 5225 5226 5227 5227 5228 5229 5230 5231 5233 5233 5235 5236 5237 5239 5240 5242 5243 5245 5248 5250 5252 5254 5257 5259 5262 5265 5269 5273 5277 5282 5287 5293 5298 5304 5310 5316 5323 5330 5338 5345 5353 5360 5368 5375 5383 5392 5399 5407 5415 5423 5432 5439
5269 5267 5264 5262 5259 5256 5253 5251 5248 5246 5243 5241 5239 5237 5234 5233 5231 5230 5228 5227 5226 5225 5224 5223 5223 5223 5223 5223 5224 5224 5224 5225 5225 5226 5226 5227 5227 5228 5229 5230 5231 5232 5233 5234 5235 5237 5238 5239 5241 5242 5244 5246 5248 5250 5252 5254 5257 5259 5262 5266 5270 5273 5277 5281 5286 5291 5297 5303 5308 5315 5322 5328 5335 5343 5350 5358 5366 5374 5382 5390 5398 5406 5414 5422 5430 5437
5268 5266 5263 5261 5258 5256 5253 5250 5247 5245 5243 5240 5238 5236 5234 5233 5231 5230 5228 5227 5226 5225 5225 5224 5224 5224 5225 5225 5225 5225 5225 5226 5226 5227 5227 5228 5228 5229 5230 5231 5232 5233 5234 5235 5236 5237 5238 5239 5241 5243 5244 5246 5248 5250 5252 5254 5257 5260 5263 5266 5269 5272 5276 5281 5285 5290 5295 5301 5307 5313 5320 5326 5333 5340 5348 5355 5363 5370 5378 5386 5394 5402 5411 5419 5427 5436
5268 5265 5263 5261 5258 5255 5252 5249 5247 5244 5242 5240 5238 5236 5234 5233 5232 5230 5229 5228 5227 5227 5226 5226 5226 5226 5226 5226 5226 5226 5226 5227 5227 5228 5228 5228 5229 5230 5231 5232 5233 5234 5235 5236 5237 5238 5239 5240 5241 5243 5245 5246 5248 5250 5253 5254 5257 5259 5262 5265 5267 5270 5274 5279 5284 5288 5294 5299 5305 5311 5317 5324 5331 5338 5345 5353 5360 5367 5374 5382 5390 5399 5408 5416 5424 5432
5267 5265 5263 5260 5258 5255 5252 5249 5247 5244 5242 5240 5238 5236 5235 5233 5232 5231 5230 5229 5228 5228 5228 5228 5228 5228 5227 5228 5228 5228 5228 5228 5228 5228 5229 5229 5230 5231 5232 5233 5233 5234 5236 5237 5238 5238 5239 5241 5242 5243 5245 5247 5248 5250 5253 5255 5257 5260 5262 5264 5268 5272 5276 5280 5283 5288 5293 5298 5303 5309 5315 5322 5328 5335 5342 5349 5357 5364 5372 5381 5389 5398 5406 5415 5423 5430
5267 5265 5263 5260 5257 5255 5252 5249 5246 5244 5242 5240 5238 5236 5235 5234 5233 5232 5231 5230 5229 5229 5229 5229 5229 5228 5228 5228 5228 5229 5229 5229 5229 5229 5230 5231 5231 5232 5233 5233 5234 5235 5236 5237 5238 5239 5240 5241 5242 5244 5245 5247 5249 5251 5253 5255 5257 5259 5262 5265 5268 5272 5276 5279 5283 5287 5292 5297 5302 5308 5314 5320 5326 5332 5338 5346 5353 5362 5371 5380 5388 5397 5404 5412 5421 5429
5267 5264 5262 5260 5257 5255 5252 5249 5247 5244 5242 5240 5238 5237 5236 5235 5233 5233 5232 5231 5230 5230 5230 5230 5230 5230 5229 5229 5230 5230 5230 5230 5230 5231 5231 5231 5232 5233 5233 5234 5235 5236 5237 5238 5239 5240 5241 5241 5243 5244 5246 5248 5249 5251 5253 5255 5257 5259 5262 5264 5268 5270 5273 5276 5280 5286 5291 5296 5301 5306 5312 5318 5324 5330 5338 5345 5353 5361 5369 5377 5385 5393 5402 5409 5418 5426
5266 5264 5262 5259 5257 5254 5252 5249 5247 5244 5242 5240 5239 5238 5237 5236 5234 5233 5233 5232 5232 5232 5231 5231 5231 5231 5231 5231 5231 5231 5231 5231 5231 5232 5232 5233 5233 5233 5233 5234 5235 5236 5237 5238 5239 5240 5241 5242 5243 5245 5246 5248 5250 5251 5253 5255 5257 5259 5261 5264 5267 5269 5272 5276 5280 5285 5289 5294 5299 5305 5310 5316 5323 5330 5338 5346 5353 5360 5367 5374 5382 5391 5399 5408 5416 5424
5266 5263 5261 5259 5257 5254 5252 5249 5247 5245 5243 5241 5240 5239 5238 5237 5236 5235 5234 5233 5233 5233 5233 5232 5232 5232 5232 5232 5232 5232 5232 5231 5232 5233 5233 5233 5234 5234 5234 5235 5235 5236 5237 5238 5239 5240 5241 5243 5244 5245 5247 5248 5250 5251 5253 5255 5257 5259 5261 5263 5266 5269 5273 5277 5281 5284 5288 5292 5297 5303 5308 5314 5322 5329 5336 5343 5350 5357 5364 5372 5379 5387 5396 5405 5414 5423
5266 5263 5261 5259 5257 5254 5252 5250 5248 5245 5244 5242 5241 5240 5239 5238 5237 5236 5235 5235 5234 5234 5233 5233 5233 5234 5234 5234 5233 5233 5233 5233 5233 5233 5234 5234 5234 5234 5235 5235 5236 5236 5237 5238 5239 5240 5241 5242 5244 5245 5247 5248 5249 5251 5253 5255 5257 5258 5260 5263 5265 5268 5272 5275 5278 5282 5286 5291 5295 5301 5307 5313 5321 5327 5333 5339 5346 5354 5362 5370 5378 5386 5394 5403 5412 5420
5265 5263 5261 5259 5257 5254 5252 5250 5248 5246 5245 5243 5243 5242 5241 5240 5238 5238 5237 5236 5236 5236 5235 5235 5236 5236 5235 5235 5235 5234 5234 5234 5234 5234 5234 5234 5234 5235 5235 5236 5236 5237 5237 5238 5239 5240 5241 5242 5243 5245 5247 5248 5249 5251 5252 5254 5256 5258 5260 5263 5265 5267 5270 5273 5276 5280 5285 5289 5294 5299 5305 5312 5318 5324 5330 5337 5345 5353 5361 5369 5378 5386 5394 5402 5410 5418
5265 5263 5261 5259 5257 5254 5252 5251 5249 5248 5246 5245 5244 5243 5242 5241 5240 5239 5239 5238 5238 5238 5238 5238 5237 5237 5237 5237 5236 5236 5235 5235 5235 5234 5234 5234 5234 5235 5235 5235 5236 5237 5237 5238 5239 5240 5241 5242 5243 5245 5246 5248 5249 5251 5252 5253 5255 5258 5260 5262 5264 5266 5269 5272 5276 5280 5284 5288 5293 5298 5304 5309 5315 5321 5328 5336 5344 5352 5359 5367 5376 5384 5393 5401 5409 5417
5265 5263 5261 5259 5257 5255 5253 5251 5250 5248 5248 5247 5246 5245 5244 5243 5242 5241 5240 5240 5239 5239 5239 5239 5238 5238 5238 5238 5237 5237 5236 5236 5235 5235 5235 5234 5234 5234 5234 5235 5235 5236 5237 5238 5238 5239 5240 5242 5243 5244 5246 5247 5248 5250 5251 5253 5255 5257 5259 5261 5263 5266 5268 5272 5275 5278 5282 5286 5291 5296 5302 5308 5314 5321 5328 5336 5343 5350 5357 5366 5374 5382 5391 5399 5408 5416